Regional Weather Roundup
Issued by NWS

Home | Current Version | Previous Version | Text Only | Print | Product List | Glossary Off
Versions: 1 2 3 4 5 6 7 8 9 10 11 12 13 14 15 16 17 18 19 20 21 22 23 24 25 26 27 28 29 30 31 32 33 34 35 36 37 38 39 40 41 42 43 44 45 46 47 48 49 50

000
ASUS45 KPSR 030600
RWRAZ

ARIZONA HOURLY REGIONAL WEATHER ROUNDUP
NATIONAL WEATHER SERVICE PHOENIX AZ
1100 PM MST THU JUL 02 2015

NOTE: FAIR INDICATES FEW OR NO CLOUDS BELOW 12,000 FEET WITH NO
SIGNIFICANT WEATHER AND/OR OBSTRUCTIONS TO VISIBILITY.

AZZ001>003-036-030700-
NORTHWEST ARIZONA

CITY           SKY/WX    TMP DP  RH WIND       PRES   REMARKS
KINGMAN        CLEAR     81  50  33 SW8       29.98F
6HR MIN TEMP:  81; 6HR MAX TEMP:  98;

$$

AZZ004>008-015-016-018-030700-
NORTH CENTRAL ARIZONA

CITY           SKY/WX    TMP DP  RH WIND       PRES   REMARKS
GRAND CANYON   CLOUDY    64  53  67 NE7       30.23F
6HR MIN TEMP:  64; 6HR MAX TEMP:  84;

WILLIAMS       MOCLDY    63  55  77 S7        30.31F
PRESCOTT       PTCLDY    78  53  41 W9        30.12F
6HR MIN TEMP:  78; 6HR MAX TEMP:  91;

FLAGSTAFF      NOT AVBL
PAYSON         MOCLDY    81  50  34 W5        30.13S
PAGE           CLOUDY    84  50  30 CALM      29.99F
6HR MIN TEMP:  84; 6HR MAX TEMP:  96;

$$

AZZ009>014-017-030700-
NORTHEAST ARIZONA

CITY           SKY/WX    TMP DP  RH WIND       PRES   REMARKS
WINSLOW        NOT AVBL
SAINT JOHNS    LGT RAIN  75  55  49 SE9       30.13R
6HR MIN TEMP:  74; 6HR MAX TEMP:  87; 6HR PCP: TRACE;

WINDOW ROCK    CLOUDY    69  54  58 E9G20     30.23
6HR MIN TEMP:  69; 6HR MAX TEMP:  92;

SHOW LOW       MOCLDY    70  54  56 S10       30.21S
$$

AZZ023-030700-
GREATER PHOENIX AREA

CITY           SKY/WX    TMP DP  RH WIND       PRES   REMARKS
PHOENIX        MOCLDY    99  53  21 W13       29.77R
6HR MIN TEMP:  99; 6HR MAX TEMP: 106;

LUKE AFB       MOCLDY    97  59  28 SW14      29.76S
DEER VALLEY    MOCLDY    96  55  25 SW16      29.79S
6HR MIN TEMP:  96; 6HR MAX TEMP: 104;

SCOTTSDALE     MOCLDY    97  53  22 W9        29.82R
6HR MIN TEMP:  97; 6HR MAX TEMP: 104;

MESA-GATEWAY   PTCLDY    93  54  26 SW5       29.83R
$$

AZZ027-028-030700-
SOUTHWEST MARICOPA COUNTY AND PINAL COUNTY

CITY           SKY/WX    TMP DP  RH WIND       PRES   REMARKS
CASA GRANDE    MOCLDY    91  54  27 W7        29.81S
6HR MIN TEMP:  91; 6HR MAX TEMP: 102;

GILA BEND      FAIR      96  54  23 SW10      29.77S
6HR MIN TEMP:  96; 6HR MAX TEMP: 105;

$$

AZZ503-504-507>509-030700-
SOUTHEAST ARIZONA

CITY           SKY/WX    TMP DP  RH WIND       PRES   REMARKS
TUCSON         CLOUDY    91  53  27 N5        29.94S
6HR MIN TEMP:  91; 6HR MAX TEMP: 100;

DAVIS-MONTHAN  MOCLDY    89  55  30 NW6       29.93S
6HR MIN TEMP:  89; 6HR MAX TEMP:  97;

NOGALES        CLOUDY    79  64  60 CALM      30.05R
6HR MIN TEMP:  78; 6HR MAX TEMP:  91;

SIERRA VISTA   CLOUDY    79  57  46 W13       30.11S
6HR MIN TEMP:  79; 6HR MAX TEMP:  88;

SAFFORD        CLOUDY    89  55  31 NW18      29.88F
6HR MIN TEMP:  89; 6HR MAX TEMP: 102; 6HR PCP: TRACE;

$$

AZZ020-021-025-026-031-030700-
SOUTHWEST ARIZONA

CITY           SKY/WX    TMP DP  RH WIND       PRES   REMARKS
YUMA           NOT AVBL
$$

CAZ031-033-041-043-047-048-061-030700-
SOUTHERN CALIFORNIA

CITY           SKY/WX    TMP DP  RH WIND       PRES   REMARKS
DOWNTOWN L.A.  CLEAR     66  61  84 VRB5      29.95R
6HR MIN TEMP:  66; 6HR MAX TEMP:  79;

L.A. AIRPORT   MOCLDY    65  62  90 SW8       29.95F
6HR MIN TEMP:  65; 6HR MAX TEMP:  72;

SAN DIEGO      MOCLDY    69  63  81 NW5       29.97R
6HR MIN TEMP:  68; 6HR MAX TEMP:  75;

BURBANK        CLEAR     71  61  70 SE8       29.95R
6HR MIN TEMP:  71; 6HR MAX TEMP:  89;

ONTARIO        CLEAR     74  55  51 W8        29.96S
6HR MIN TEMP:  74; 6HR MAX TEMP:  92;

RIVERSIDE      CLEAR     75  59  57 W6        29.96R
6HR MIN TEMP:  75; 6HR MAX TEMP:  93;

PALM SPRINGS   CLEAR     96  55  25 NW13      29.79S
6HR MIN TEMP:  96; 6HR MAX TEMP: 108;

EL CENTRO NAS  PTCLDY    91  53  27 W15       29.78S
6HR MIN TEMP:  91; 6HR MAX TEMP: 108;

IMPERIAL       CLEAR     87  58  37 W8        29.75S
6HR MIN TEMP:  87; 6HR MAX TEMP: 108;

BLYTHE         PTCLDY    99  59  26 W13       29.74R
6HR MIN TEMP:  99; 6HR MAX TEMP: 106;

$$

NVZ020-UTZ003-030700-
SOUTHERN NEVADA-UTAH

CITY           SKY/WX    TMP DP  RH WIND       PRES   REMARKS
LAS VEGAS      NOT AVBL
SALT LAKE CITY MOCLDY    80  49  33 S5        29.97F
6HR MIN TEMP:  80; 6HR MAX TEMP:  98;

$$

NMZ009-TXZ055-030700-
NEW MEXICO-WEST TEXAS

CITY           SKY/WX    TMP DP  RH WIND       PRES   REMARKS
ALBUQUERQUE    CLOUDY    72  59  63 N10       30.20R
6HR MIN TEMP:  70; 6HR MAX TEMP:  79; 6HR PCP:  0.05;

EL PASO        MOCLDY    87  46  24 E12       29.99R
6HR MIN TEMP:  87; 6HR MAX TEMP: 101;

$$


........................KEY........................
SKY/WX - SKY CONDITION/WEATHER
TMP    - TEMPERATURE IN FAHRENHEIT
DP     - DEW POINT IN FAHRENHEIT
RH     - RELATIVE HUMIDITY IN PERCENT
WIND   - DIRECTION AND SPEED IN MILES PER HOUR (MPH)
VRB    - VARIABLE WIND DIRECTION
PRES   - MEAN SEA LEVEL PRESSURE IN INCHES OF MERCURY
         F - FALLING PRESSURE   R - RISING PRESSURE
         S - STEADY PRESSURE
VSB    - VISIBILITY IN MILES
HX     - HEAT INDEX IN FAHRENHEIT
WCI    - WIND CHILL INDEX IN FAHRENHEIT
TC     - TEMPERATURE IN CELSIUS WHICH IS ALSO KNOWN AS
         TEMPERATURE IN CENTIGRADE
AFB    - AIR FORCE BASE
         LUKE AFB IS LUKE AIR FORCE BASE
         DAVIS-MONTHAN IS DAVIS-MONTHAN AIR FORCE BASE
NAS    - NAVAL AIR STATION
         EL CENTRO NAS IS EL CENTRO NAVAL AIR STATION
N/A    - NOT AVAILABLE



USA.gov is the U.S. government's official web portal to all federal, state and local government web resources and services.